Regional Weather Roundup
Issued by NWS

Home | Current Version | Previous Version | Text Only | Print | Product List | Glossary Off
Versions: 1 2 3 4 5 6 7 8 9 10 11 12 13 14 15 16 17 18 19 20 21 22 23 24 25 26 27 28 29 30 31 32 33 34 35 36 37 38 39 40 41 42 43 44 45 46 47 48 49 50

000
ASUS45 KBOU 241210
RWRCO

WEATHER ROUNDUP FOR COLORADO
NATIONAL WEATHER SERVICE DENVER/BOULDER CO
600 AM MDT SAT SEP 24 2016

NOTE: "FAIR" INDICATES FEW OR NO CLOUDS BELOW 12000 FEET WITH NO
SIGNIFICANT WEATHER AND/OR OBSTRUCTIONS TO VISIBILITY.

COZ001>005-013-030-031-241300-
...NORTHWEST COLORADO...

CITY           SKY/WX    TMP DP  RH WIND       PRES   REMARKS
CRAIG          CLOUDY    42  36  79 E7        30.06R
HAYDEN         CLOUDY    39  34  81 E6        30.07R
MEEKER         CLOUDY    43  36  76 S14       30.06S
MOUNT WERNER   NOT AVBL
STEAMBOAT SPGS CLOUDY    37  35  94 CALM      30.07R
WALDEN           N/A     34  27  75 S6        30.09S WCI  29
$$

COZ006>008-011-241300-
...WEST CENTRAL VALLEYS...

CITY           SKY/WX    TMP DP  RH WIND       PRES   REMARKS
GRAND JUNCTION CLOUDY    47  42  83 SE5       30.08S
MONTROSE       CLOUDY    44  39  82 CALM      30.14R
EAGLE          CLOUDY    37  36  93 E5        30.13S
RIFLE          CLOUDY    44  42  93 E3        30.09F
DELTA          NOT AVBL
NUCLA          CLOUDY    45  36  70 CALM      30.17R
$$

COZ017>023-064>068-241300-
...SOUTHWEST COLORADO...

CITY           SKY/WX    TMP DP  RH WIND       PRES   REMARKS
DURANGO        FAIR      32  30  92 CALM      30.19S
CORTEZ         CLOUDY    42  38  85 E5        30.16S
PAGOSA SPRINGS FAIR      30  30 100 CALM      30.21S
TELLURIDE      CLOUDY    37  26  64 CALM      30.22S
WOLF CREEK PAS FAIR      21  19  93 MISG      30.29S
$$

COZ009-010-012-014-032>034-037-058>063-241300-
...CENTRAL COLORADO...

CITY           SKY/WX    TMP DP  RH WIND       PRES   REMARKS
ASPEN          CLOUDY    36  32  85 CALM      30.11S
BUENA VISTA    CLOUDY    32  27  80 S6        30.12S WCI  27
COPPER MTN     FLURRIES  28  18  64 MISG      30.16F
BERTHOUD PASS  FAIR      19   5  53 W26G40    30.14S WCI   1
COTTONWOOD PAS FAIR      36  18  48 W6        30.15S
GUNNISON       CLOUDY    33  30  88 N5        30.19S WCI  29
KREMMLING      CLOUDY    37  30  75 CALM      30.12R
LEADVILLE      CLOUDY    32  18  56 S10       30.13F WCI  24
MONARCH PASS   CLOUDY    23  19  86 W25       30.32S WCI   7
SALIDA         FAIR      41  26  53 W13       30.19S
SUNLIGHT       CLOUDY    30  30 100 SW14      30.19R WCI  20
WILKERSON PASS FAIR      23  19  86 SW13G20   30.17S WCI  11
$$

COZ069>075-241300-
...SAN LUIS VALLEY/SANGRE DE CRISTO MOUNTAINS...

CITY           SKY/WX    TMP DP  RH WIND       PRES   REMARKS
ALAMOSA        FOG       25  24  96 SW3       30.18S VSB 1/4
LA VETA PASS   NOT AVBL
SAGUACHE       NOT AVBL
$$

COZ035-036-038>040-241300-
...NORTHERN COLORADO FRONT RANGE...

CITY           SKY/WX    TMP DP  RH WIND       PRES   REMARKS
DENVER INTL AP MOCLDY    40  34  79 S10       29.97F
DMNS CITY PARK   N/A     46  28  49 E2        29.97R
AURORA         MOCLDY    45  23  42 SE7       29.99R
FRONT RANGE AP FAIR      43  36  75 SE6       29.98F
ERIE MUNI ARPT FAIR      40  38  92 W5        29.98S
BOULDER MUN AP FAIR      41  41 100 CALM      29.97F
CENTENNIAL     MOCLDY    49  21  33 S6G18     29.98R
BROOMFIELD     FAIR      43  37  81 NW14      29.98S
FORT COLLINS   FAIR      43  39  87 SW5       29.97F
LONGMONT       FAIR      42  38  86 NW7       30.00S
$$

COZ041-046-047-076>085-087-088-241300-
...PIKES PEAK/PALMER DIVIDE AND SOUTHERN FOOTHILLS...

CITY           SKY/WX    TMP DP  RH WIND       PRES   REMARKS
COLO. SPRINGS  FAIR      43  21  41 NW7       30.03S
A. F. ACADEMY  CLEAR     43  19  38 S1        30.02F
SCHRIEVER AFB  NOT AVBL
ELLICOTT       FAIR     N/A N/A N/A NE3       30.01S
FALCON         FAIR      44  18  34 NW12      30.04F
FORT CARSON    FAIR      41  22  47 NW5       30.00S
LIMON          FAIR      30  28  92 CALM      30.00F
MONUMENT HILL  FAIR      41  21  45 SW12      30.05R
TRINIDAD       FAIR      40  28  62 CALM      30.06R
$$

COZ042>045-048>051-090-091-241300-
...NORTHEAST COLORADO...

CITY           SKY/WX    TMP DP  RH WIND       PRES   REMARKS
GREELEY ARPT   FAIR      43  39  87 CALM      29.99F
AKRON          FAIR      41  35  79 W3        29.98S
BURLINGTON     FAIR      45  39  79 NW8       29.99S
WRAY           FAIR      45  37  76 W5        29.96S
STERLING       FAIR      41  37  87 S7        29.96R
HOLYOKE        FAIR      46  41  81 NW8       29.95S
FORT MORGAN    FAIR      38  35  89 S3        29.98F
$$

COZ086-089-092>099-241300-
...SOUTHEAST COLORADO...

CITY           SKY/WX    TMP DP  RH WIND       PRES   REMARKS
PUEBLO         FAIR      46  25  43 E6        29.99R
LA JUNTA       CLOUDY    54  28  36 S6        30.00S
LAMAR          FAIR      43  35  73 SW6       29.99R
SPRINGFIELD    NOT AVBL
$$



USA.gov is the U.S. government's official web portal to all federal, state and local government web resources and services.